Weather History for KEBG - July, 2013

Change the Weather History Date:

Sunday, July 7, 2013

  Actual Average (KMFE) Record (KMFE)
Temperature  
Mean Temperature 84 °F 86 °F  
Max Temperature 92 °F 97 °F 109 °F (2009)
Min Temperature 77 °F 76 °F 68 °F (1976)
Degree Days  
Heating Degree Days 0 0  
Month to date heating degree days 0  
Since 1 June heating degree days 0  
Since 1 July heating degree days 0  
Cooling Degree Days 20 21  
Month to date cooling degree days 147  
Year to date cooling degree days 2030  
Since 1 June cooling degree days 775  
Growing Degree Days 34 (Base 50)    
Moisture  
Dew Point 72 °F    
Average Humidity 74    
Maximum Humidity 90    
Minimum Humidity 36    
Precipitation  
Precipitation 0.58 in 0.08 in 1.57 in (2008)
Month to date precipitation 0.53  
Year to date precipitation 9.89  
Sea Level Pressure  
Sea Level Pressure 29.90 in    
Wind  
Wind Speed 7 mph (SE)    
Max Wind Speed 28 mph    
Max Gust Speed 33 mph    
Visibility 7 miles    
Events Rain , Thunderstorm    
T = Trace of Precipitation, MM = Missing Value Source: NWS Daily Summary

Daily Weather History Graph

Daily Weather History Graph

Search for Another Location

Airport or City:

Trip Planner

Search our weather history database for the weather conditions in past years. The results will help you decide how hot, cold, wet, or windy it might be!

Date:

Astronomy

Jul. 07, 2013 Rise Set
Actual Time 6:45 AM CDT 8:29 PM CDT
Civil Twilight 6:19 AM CDT 8:55 PM CDT
Nautical Twilight 5:48 AM CDT 9:26 PM CDT
Astronomical Twilight 5:15 AM CDT 9:59 PM CDT
Moon 6:17 AM CDT (7/7) 8:01 PM CDT (7/7)
Length of Visible Light 14h 35m
Length of Day
13h 43m
Waning Crescent, 0% of the Moon is Illuminated
Jul 7
Waning Crescent
Jul 8
New
Jul 15
First Quarter
Jul 22
Full
Jul 29
Last Quarter

Hourly Weather History & Observations

Time (CDT) Temp. Heat Index Dew Point Humidity Pressure Visibility Wind Dir Wind Speed Gust Speed Precip Events Conditions
12:15 AM 80.2 °F 84.0 °F 71.6 °F 75% 29.87 in 7.0 mi SE 9.2 mph - N/A   Clear
12:35 AM 80.2 °F 84.0 °F 71.6 °F 75% 29.87 in 5.0 mi SE 9.2 mph - N/A   Haze
12:55 AM 80.1 °F 83.7 °F 71.6 °F 75% 29.87 in 7.0 mi SSE 8.1 mph - N/A   Clear
1:15 AM 79.7 °F - 71.4 °F 76% 29.87 in 7.0 mi SE 8.1 mph - N/A   Clear
1:35 AM 79.2 °F - 71.4 °F 77% 29.87 in 7.0 mi SE 6.9 mph - N/A   Clear
1:55 AM 79.0 °F - 71.6 °F 78% 29.87 in 7.0 mi SE 5.8 mph - N/A   Clear
2:15 AM 78.8 °F - 71.6 °F 78% 29.86 in 7.0 mi SE 5.8 mph - N/A   Clear
2:35 AM 78.3 °F - 71.6 °F 80% 29.86 in 7.0 mi SE 5.8 mph - N/A   Clear
2:55 AM 78.1 °F - 71.6 °F 80% 29.85 in 7.0 mi SE 5.8 mph - N/A   Clear
3:15 AM 78.8 °F - 72.1 °F 80% 29.85 in 7.0 mi ESE 5.8 mph - N/A   Scattered Clouds
3:35 AM 78.8 °F - 71.6 °F 78% 29.85 in 7.0 mi East 5.8 mph - N/A   Mostly Cloudy
3:55 AM 78.8 °F - 72.0 °F 79% 29.85 in 7.0 mi ESE 5.8 mph - N/A   Mostly Cloudy
4:15 AM 78.8 °F - 72.0 °F 79% 29.86 in 7.0 mi East 4.6 mph - N/A   Scattered Clouds
4:35 AM 78.8 °F - 72.3 °F 80% 29.86 in 7.0 mi ESE 5.8 mph - N/A   Scattered Clouds
4:55 AM 78.4 °F - 72.5 °F 82% 29.86 in 7.0 mi ESE 4.6 mph - N/A   Clear
5:15 AM 78.3 °F - 72.5 °F 82% 29.85 in 7.0 mi East 4.6 mph - N/A   Clear
5:35 AM 78.1 °F - 72.7 °F 83% 29.86 in 5.0 mi ESE 6.9 mph - N/A   Haze
5:55 AM 78.4 °F - 73.0 °F 83% 29.87 in 7.0 mi ESE 5.8 mph - N/A   Scattered Clouds
6:15 AM 78.4 °F - 73.0 °F 83% 29.87 in 7.0 mi ESE 4.6 mph - N/A   Clear
6:35 AM 78.3 °F - 72.9 °F 83% 29.87 in 7.0 mi East 4.6 mph - N/A   Clear
6:55 AM 78.1 °F - 73.0 °F 84% 29.87 in 7.0 mi ESE 5.8 mph - N/A   Scattered Clouds
7:15 AM 78.6 °F - 73.4 °F 84% 29.87 in 5.0 mi ESE 6.9 mph - N/A   Haze
7:35 AM 79.2 °F - 73.8 °F 83% 29.87 in 7.0 mi ESE 5.8 mph - N/A   Clear
7:55 AM 80.2 °F 84.9 °F 73.8 °F 81% 29.87 in 7.0 mi ESE 5.8 mph - N/A   Clear
8:15 AM 81.0 °F 86.0 °F 73.4 °F 78% 29.88 in 7.0 mi ESE 4.6 mph - N/A   Clear
8:35 AM 81.9 °F 87.3 °F 73.2 °F 75% 29.89 in 5.0 mi SE 4.6 mph - N/A   Haze
8:55 AM 82.6 °F 88.1 °F 72.7 °F 72% 29.90 in 7.0 mi SE 12.7 mph - N/A   Scattered Clouds
9:15 AM 83.7 °F 89.4 °F 72.7 °F 69% 29.91 in 7.0 mi SE 11.5 mph - N/A   Scattered Clouds
9:35 AM 83.7 °F 89.2 °F 72.0 °F 68% 29.91 in 7.0 mi SE 8.1 mph - N/A   Clear
9:55 AM 84.6 °F 89.7 °F 71.1 °F 64% 29.91 in 7.0 mi South 6.9 mph - N/A   Clear
10:15 AM 85.3 °F 90.8 °F 71.6 °F 63% 29.93 in 7.0 mi ESE 8.1 mph - N/A   Clear
10:35 AM 85.8 °F 90.8 °F 70.7 °F 60% 29.93 in 7.0 mi SE 8.1 mph - N/A   Clear
10:55 AM 86.2 °F 90.0 °F 68.9 °F 56% 29.93 in 7.0 mi SE 8.1 mph - N/A   Scattered Clouds
11:15 AM 86.9 °F 91.0 °F 68.9 °F 55% 29.93 in 7.0 mi SE 9.2 mph - N/A   Mostly Cloudy
11:35 AM 88.2 °F 91.7 °F 68.0 °F 51% 29.93 in 5.0 mi SSE 9.2 mph 16.1 mph N/A   Haze
11:55 AM 89.4 °F 91.9 °F 66.4 °F 46% 29.93 in 7.0 mi South 9.2 mph 16.1 mph N/A   Scattered Clouds
12:15 PM 90.1 °F 93.1 °F 66.9 °F 46% 29.94 in 7.0 mi SE 8.1 mph - N/A   Scattered Clouds
12:35 PM 90.3 °F 91.5 °F 63.5 °F 41% 29.94 in 7.0 mi SSE 13.8 mph 21.9 mph N/A   Overcast
12:55 PM 90.9 °F 92.3 °F 64.4 °F 41% 29.93 in 10.0 mi East 8.1 mph 16.1 mph N/A   Overcast
1:15 PM 90.5 °F 93.3 °F 66.4 °F 45% 29.92 in 7.0 mi SSE 8.1 mph - N/A   Overcast
1:35 PM 90.9 °F 90.6 °F 60.6 °F 36% 29.91 in 4.0 mi SE 9.2 mph - N/A Thunderstorm Haze
1:55 PM 92.3 °F 96.5 °F 68.2 °F 45% 29.90 in 7.0 mi East 15.0 mph 18.4 mph N/A   Mostly Cloudy
2:15 PM 86.5 °F 94.2 °F 73.4 °F 65% 29.92 in 5.0 mi SE 27.6 mph 33.4 mph N/A Rain , Thunderstorm Thunderstorms and Rain
2:35 PM 77.0 °F - 72.9 °F 87% 29.95 in 0.8 mi SSE 18.4 mph 32.2 mph 0.39 in Rain , Thunderstorm Light Thunderstorms and Rain
2:55 PM 77.2 °F - 73.6 °F 89% 29.95 in 4.0 mi South 6.9 mph - 0.51 in Rain , Thunderstorm Heavy Thunderstorms and Rain
3:15 PM 77.5 °F - 74.3 °F 90% 29.94 in 7.0 mi South 4.6 mph - 0.03 in Rain Light Rain
3:35 PM 77.7 °F - 74.1 °F 89% 29.93 in 10.0 mi Calm Calm - 0.03 in Rain Light Rain
3:55 PM 77.9 °F - 74.3 °F 89% 29.93 in 7.0 mi South 3.5 mph - 0.03 in Rain Light Rain
4:15 PM 78.3 °F - 74.5 °F 88% 29.92 in 7.0 mi South 4.6 mph - 0.02 in Rain Light Rain
4:35 PM 78.4 °F - 74.5 °F 88% 29.91 in 10.0 mi SE 3.5 mph - 0.02 in Rain Rain
4:55 PM 78.8 °F - 74.3 °F 86% 29.91 in 10.0 mi Calm Calm - 0.03 in Rain Light Rain
5:15 PM 79.5 °F - 74.1 °F 83% 29.91 in 10.0 mi Calm Calm - 0.01 in Rain Light Rain
5:35 PM 79.7 °F - 74.5 °F 84% 29.90 in 10.0 mi NE 3.5 mph - 0.01 in Rain Rain
5:55 PM 80.6 °F 85.9 °F 74.5 °F 82% 29.91 in 10.0 mi Calm Calm - 0.01 in Rain Light Rain
6:15 PM 81.5 °F 87.6 °F 74.7 °F 80% 29.90 in 10.0 mi NE 4.6 mph - N/A Rain Rain
6:35 PM 82.4 °F 89.0 °F 74.5 °F 77% 29.90 in 7.0 mi East 5.8 mph - N/A   Clear
6:55 PM 82.9 °F 89.1 °F 73.6 °F 73% 29.90 in 7.0 mi East 5.8 mph - N/A   Clear
7:15 PM 82.8 °F 89.2 °F 73.9 °F 75% 29.90 in 7.0 mi ESE 8.1 mph - N/A   Clear
7:35 PM 82.6 °F 88.8 °F 73.9 °F 75% 29.91 in 7.0 mi ESE 9.2 mph - N/A   Scattered Clouds
7:55 PM 82.0 °F 87.7 °F 73.6 °F 75% 29.91 in 7.0 mi SE 8.1 mph - N/A   Mostly Cloudy
8:15 PM 81.5 °F 86.7 °F 73.4 °F 76% 29.90 in 7.0 mi SE 8.1 mph - N/A   Scattered Clouds
8:35 PM 80.8 °F 85.8 °F 73.8 °F 79% 29.90 in 7.0 mi SE 5.8 mph - N/A   Clear
8:55 PM 80.4 °F 85.0 °F 73.4 °F 79% 29.91 in 7.0 mi ESE 5.8 mph - N/A   Clear
9:15 PM 80.2 °F 84.5 °F 72.9 °F 78% 29.92 in 10.0 mi ESE 5.8 mph - N/A   Clear
9:35 PM 79.7 °F - 72.9 °F 80% 29.92 in 10.0 mi SE 5.8 mph - N/A   Clear
9:55 PM 79.3 °F - 72.9 °F 80% 29.93 in 7.0 mi SE 8.1 mph - N/A   Clear
10:15 PM 79.7 °F - 72.7 °F 79% 29.94 in 7.0 mi SE 9.2 mph - N/A   Clear
10:35 PM 79.7 °F - 72.5 °F 79% 29.95 in 7.0 mi SE 10.4 mph - N/A   Clear
10:55 PM 79.7 °F - 72.5 °F 79% 29.97 in 7.0 mi SE 8.1 mph - N/A   Clear
11:15 PM 79.7 °F - 72.5 °F 79% 29.97 in 7.0 mi SE 6.9 mph - N/A   Clear
11:35 PM 79.9 °F - 72.1 °F 77% 29.98 in 7.0 mi SE 8.1 mph - N/A   Clear
11:55 PM 79.7 °F - 72.5 °F 79% 29.98 in 7.0 mi SE 8.1 mph - N/A   Clear